When you browse on this site, cookies collect data to enhance your experience and personalize the content and advertising you see.
Visit our Privacy Policy to learn more. By continuing to use the site, you agree to this use of cookies and data.
  • în România
  • Lista ţărilor
  • Pe 7 zile
  • Temperatura apei
  • Hartă satelitară
  • Meteo pe hartă
  • Widget-uri
  • user-avatar
    Intrare

    Meteo pe oră la Nadeevo

    Astăzi, 23 Februarie, Sâmbătă

    Timp Temperatura Precipitaţii Vânt Presiune Umiditate
    00:00 -15°C° 0 mm 2 m/s 755 mmHg 92%
    01:00 -15°C° 0 mm 2 m/s 755 mmHg 93%
    02:00 -16°C° 0 mm 2 m/s 755 mmHg 95%
    03:00 -16°C° 0 mm 2 m/s 754 mmHg 93%
    04:00 -16°C° 0 mm 2 m/s 754 mmHg 91%
    05:00 -16°C° 0 mm 2 m/s 754 mmHg 89%
    06:00 -15°C° 0 mm 2 m/s 753 mmHg 86%
    07:00 -15°C° 0 mm 3 m/s 753 mmHg 82%
    08:00 -13°C° 0 mm 3 m/s 753 mmHg 78%
    09:00 -12°C° 0 mm 4 m/s 752 mmHg 77%
    10:00 -11°C° 0 mm 4 m/s 751 mmHg 76%
    11:00 -10°C° 0 mm 4 m/s 750 mmHg 75%
    12:00 -11°C° 0.4 mm 5 m/s 750 mmHg 80%
    13:00 -11°C° 0.4 mm 5 m/s 749 mmHg 86%
    14:00 -11°C° 0 mm 5 m/s 748 mmHg 91%
    15:00 -11°C° 0.5 mm 5 m/s 748 mmHg 91%
    16:00 -10°C° 0.5 mm 4 m/s 747 mmHg 92%
    17:00 -10°C° 0.5 mm 4 m/s 746 mmHg 92%
    18:00 -9°C° 0.2 mm 4 m/s 746 mmHg 92%
    19:00 -8°C° 0.2 mm 3 m/s 746 mmHg 93%
    20:00 -7°C° 0.2 mm 3 m/s 746 mmHg 93%
    21:00 -6°C° 0 mm 2 m/s 746 mmHg 94%
    22:00 -5°C° 0 mm 2 m/s 746 mmHg 95%
    23:00 -5°C° 0 mm 2 m/s 746 mmHg 96%

    Mâine, 24 Februarie, Duminică

    Timp Temperatura Precipitaţii Vânt Presiune Umiditate
    00:00 -4°C° 0 mm 2 m/s 746 mmHg 97%
    01:00 -1°C° 0 mm 1 m/s 746 mmHg 97%
    02:00 -1°C° 0 mm 1 m/s 746 mmHg 97%
    03:00 -1°C° 0.1 mm 1 m/s 746 mmHg 97%
    04:00 0°C° 0.1 mm 1 m/s 746 mmHg 98%
    05:00 -2°C° 0.1 mm 2 m/s 746 mmHg 98%
    06:00 -1°C° 0.1 mm 2 m/s 746 mmHg 98%
    07:00 -1°C° 0.1 mm 2 m/s 746 mmHg 98%
    08:00 +1°C° 0.1 mm 2 m/s 746 mmHg 98%
    09:00 +1°C° 0 mm 2 m/s 746 mmHg 98%
    10:00 +1°C° 0 mm 2 m/s 746 mmHg 99%
    11:00 0°C° 0 mm 3 m/s 746 mmHg 99%
    12:00 0°C° 0 mm 3 m/s 745 mmHg 99%
    13:00 0°C° 0 mm 3 m/s 745 mmHg 98%
    14:00 0°C° 0 mm 3 m/s 745 mmHg 98%
    15:00 0°C° 0 mm 3 m/s 745 mmHg 98%
    16:00 +1°C° 0 mm 2 m/s 744 mmHg 97%
    17:00 -1°C° 0 mm 2 m/s 744 mmHg 97%
    18:00 -1°C° 0.1 mm 3 m/s 743 mmHg 96%
    19:00 -1°C° 0.1 mm 3 m/s 742 mmHg 96%
    20:00 -1°C° 0.1 mm 3 m/s 742 mmHg 96%
    21:00 -1°C° 0.1 mm 4 m/s 741 mmHg 95%
    22:00 -1°C° 0.1 mm 4 m/s 740 mmHg 94%
    23:00 -1°C° 0.1 mm 4 m/s 739 mmHg 94%

    Poimâine, 25 Februarie, Luni

    Timp Temperatura Precipitaţii Vânt Presiune Umiditate
    00:00 -1°C° 0.1 mm 4 m/s 738 mmHg 93%
    01:00 -1°C° 0.1 mm 4 m/s 738 mmHg 91%
    02:00 -1°C° 0.1 mm 4 m/s 737 mmHg 90%
    03:00 -1°C° 0.1 mm 5 m/s 737 mmHg 89%
    04:00 -1°C° 0.1 mm 5 m/s 736 mmHg 88%
    05:00 -1°C° 0.1 mm 5 m/s 736 mmHg 86%
    06:00 -1°C° 0 mm 5 m/s 736 mmHg 87%
    07:00 -1°C° 0 mm 5 m/s 736 mmHg 87%
    08:00 -2°C° 0 mm 5 m/s 736 mmHg 87%
    09:00 -2°C° 0.1 mm 5 m/s 735 mmHg 87%
    10:00 -2°C° 0.1 mm 5 m/s 735 mmHg 87%
    11:00 -1°C° 0.1 mm 5 m/s 735 mmHg 87%
    12:00 -1°C° 0.2 mm 5 m/s 734 mmHg 87%
    13:00 -1°C° 0.2 mm 5 m/s 734 mmHg 88%
    14:00 -1°C° 0.2 mm 5 m/s 734 mmHg 88%
    15:00 -1°C° 0.1 mm 4 m/s 734 mmHg 89%
    16:00 -2°C° 0.1 mm 4 m/s 734 mmHg 90%
    17:00 -2°C° 0.1 mm 4 m/s 734 mmHg 90%
    18:00 -2°C° 0.1 mm 4 m/s 734 mmHg 91%
    19:00 -2°C° 0.1 mm 4 m/s 734 mmHg 91%
    20:00 -2°C° 0.1 mm 4 m/s 735 mmHg 91%
    21:00 -2°C° 0 mm 4 m/s 735 mmHg 90%
    22:00 -2°C° 0 mm 4 m/s 735 mmHg 89%
    23:00 -2°C° 0 mm 4 m/s 735 mmHg 88%

    26 Februarie, Marţi

    Timp Temperatura Precipitaţii Vânt Presiune Umiditate
    00:00 -3°C° 0 mm 4 m/s 735 mmHg 89%
    01:00 -3°C° 0 mm 4 m/s 735 mmHg 90%
    02:00 -2°C° 0 mm 3 m/s 735 mmHg 91%
    03:00 -3°C° 0.1 mm 4 m/s 734 mmHg 91%
    04:00 -2°C° 0.1 mm 4 m/s 734 mmHg 91%
    05:00 -2°C° 0.1 mm 4 m/s 734 mmHg 92%
    06:00 -2°C° 0.1 mm 4 m/s 734 mmHg 91%
    07:00 -2°C° 0.1 mm 4 m/s 734 mmHg 91%
    08:00 -2°C° 0.1 mm 4 m/s 734 mmHg 91%
    09:00 -2°C° 0.1 mm 4 m/s 735 mmHg 90%
    10:00 -2°C° 0.1 mm 4 m/s 735 mmHg 88%
    11:00 -2°C° 0.1 mm 4 m/s 735 mmHg 87%
    12:00 -2°C° 0.1 mm 4 m/s 736 mmHg 86%
    13:00 -2°C° 0.1 mm 4 m/s 736 mmHg 86%
    14:00 -2°C° 0.1 mm 4 m/s 737 mmHg 85%
    15:00 -3°C° 0.1 mm 4 m/s 738 mmHg 85%
    16:00 -3°C° 0.1 mm 4 m/s 739 mmHg 85%
    17:00 -4°C° 0.1 mm 4 m/s 739 mmHg 84%
    18:00 -5°C° 0.1 mm 4 m/s 740 mmHg 83%
    19:00 -5°C° 0.1 mm 4 m/s 741 mmHg 82%
    20:00 -7°C° 0.1 mm 4 m/s 741 mmHg 81%
    21:00 -8°C° 0 mm 4 m/s 742 mmHg 82%
    22:00 -9°C° 0 mm 4 m/s 742 mmHg 83%
    23:00 -9°C° 0 mm 3 m/s 742 mmHg 83%

    27 Februarie, Miercuri

    Timp Temperatura Precipitaţii Vânt Presiune Umiditate
    00:00 -10°C° 0 mm 3 m/s 743 mmHg 86%
    01:00 -12°C° 0 mm 3 m/s 743 mmHg 88%
    02:00 -10°C° 0 mm 2 m/s 743 mmHg 90%
    03:00 -10°C° 0 mm 2 m/s 742 mmHg 91%
    04:00 -12°C° 0 mm 2 m/s 742 mmHg 91%
    05:00 -12°C° 0 mm 2 m/s 742 mmHg 92%
    06:00 -12°C° 0 mm 2 m/s 742 mmHg 91%
    07:00 -10°C° 0 mm 1 m/s 741 mmHg 91%
    08:00 -10°C° 0 mm 1 m/s 741 mmHg 90%
    09:00 -9°C° 0 mm 1 m/s 740 mmHg 88%
    10:00 -8°C° 0 mm 1 m/s 739 mmHg 85%
    11:00 -7°C° 0 mm 1 m/s 738 mmHg 83%
    12:00 -8°C° 0.1 mm 2 m/s 738 mmHg 84%
    13:00 -7°C° 0.1 mm 2 m/s 737 mmHg 85%
    14:00 -7°C° 0.1 mm 2 m/s 736 mmHg 86%
    15:00 -7°C° 0 mm 2 m/s 736 mmHg 88%
    16:00 -6°C° 0 mm 2 m/s 735 mmHg 90%
    17:00 -6°C° 0 mm 2 m/s 735 mmHg 92%
    18:00 -6°C° 0 mm 2 m/s 734 mmHg 93%
    19:00 -5°C° 0 mm 2 m/s 734 mmHg 94%
    20:00 -5°C° 0 mm 2 m/s 733 mmHg 95%
    21:00 -4°C° 0.1 mm 2 m/s 733 mmHg 94%
    22:00 -4°C° 0.1 mm 3 m/s 732 mmHg 94%
    23:00 -2°C° 0.1 mm 3 m/s 732 mmHg 94%

    28 Februarie, Joi

    Timp Temperatura Precipitaţii Vânt Presiune Umiditate
    00:00 -2°C° 0 mm 3 m/s 731 mmHg 94%
    01:00 -2°C° 0 mm 3 m/s 731 mmHg 94%
    02:00 -2°C° 0 mm 3 m/s 730 mmHg 94%
    03:00 -2°C° 0 mm 3 m/s 729 mmHg 94%
    04:00 -2°C° 0 mm 3 m/s 729 mmHg 94%
    05:00 -2°C° 0 mm 3 m/s 728 mmHg 94%
    06:00 -2°C° 0 mm 3 m/s 728 mmHg 93%
    07:00 -2°C° 0 mm 3 m/s 727 mmHg 93%
    08:00 -2°C° 0 mm 3 m/s 726 mmHg 93%
    09:00 -2°C° 0 mm 3 m/s 726 mmHg 92%
    10:00 -2°C° 0 mm 2 m/s 725 mmHg 92%
    11:00 -1°C° 0 mm 2 m/s 725 mmHg 91%
    12:00 -1°C° 0.1 mm 2 m/s 724 mmHg 92%
    13:00 -1°C° 0.1 mm 2 m/s 723 mmHg 93%
    14:00 -1°C° 0.1 mm 2 m/s 723 mmHg 94%
    15:00 +1°C° 0 mm 1 m/s 722 mmHg 95%
    16:00 0°C° 0 mm 1 m/s 722 mmHg 95%
    17:00 0°C° 0 mm 1 m/s 722 mmHg 96%
    18:00 -1°C° 0 mm 1 m/s 722 mmHg 96%
    19:00 -1°C° 0 mm 1 m/s 722 mmHg 96%
    20:00 -2°C° 0 mm 0 m/s 721 mmHg 96%
    21:00 -3°C° 0 mm 0 m/s 721 mmHg 96%
    22:00 -3°C° 0 mm 0 m/s 721 mmHg 96%
    23:00 -4°C° 0 mm 0 m/s 721 mmHg 96%
    Arată mai mult